sat.trackr.live / text

‹ back to catalog

STARLINK-34357

NORAD 64310 · 2025-123V

PAYLOAD ACTIVE UNKNOWN

§ Identity

Operator
Country
US
Launch date
2025-06-08
Launch site
AFWTR
Launch vehicle
Mass (kg)
RCS (m²)

Purposes: comms

External: N2YO · Heavens-Above · Gunter

§ Orbital elements

Epoch: 2026-05-24T23:46:12.033984Z

Period
96.11 min
Inclination
70.0023°
Eccentricity
0.0002139
Mean motion
14.98279810 rev/d
Perigee alt
570.7 km
Apogee alt
573.7 km
Semi-major
6,950.3 km
B*
2.6939e-3
RAAN
2.2355°
Arg perigee
287.2981°
Mean anomaly
72.7944°
Rev number
5,304

§ Raw data

STARLINK-343571 64310U 25123V   26144.99041706  .00032155  00000+0  26939-2 0  99962 64310  70.0023   2.2355 0002139 287.2981  72.7944 14.98279810 53041

JSON: /api/v1/satellites/64310 · /tle

For live sub-satellite position, see the globe view (requires WebGL).

§ Visibility from observer

Set your observer location to see the next 7 days of passes ≥ 10°. The values pass through the URL so the page stays shareable.

No JS? Fill the form by hand. The geolocation button needs JavaScript.